Member area
Imprimable
Challenges > Delhalle - Amay, 13/04/2008, BEL - Le Semi Marathon d'Amay
List of reports > Delhalle - 21km - Classement scratch
Search: Page: [1]
110 Entries
 
Complains are not accepted anymore. Results are final.
PlaceNrNameAgeNATLeagueTeamRealTimeTkmMoy.ScrPtsCity
1.11DUBOIS Michel51BELHERV1:19:111:19:113:46 15.99121007WELKENRAEDT
2.921ROSSI Claude50BELJOGGPLUS1:22:311:22:323:55 15.3420954YVOIR
3.791LEFAIBLE Yvan58BELSAUC KAPUC1:23:041:23:073:57 15.2323944ALSEMBERG
4.1171HANUS Michel50BELUACDILAVILE1:24:041:24:054:00 15.0627928ROSELIES
5.1075HENRY Robert51BELDAMPHRC1:28:461:28:514:13 14.2549851HALANZY
6.2253LACROIX Rudy50BELSERUNNER1:29:061:29:084:14 14.2053843LIÈGE
7.2272KOCH Michel51BELSERUNNER1:29:211:29:274:15 14.1556838NEUPRÉ
8.2336DEJONG Daniel55BEL1:29:411:29:514:16 14.0957833SERAING
9.205RASSART Patrick50BELACLO1:29:571:30:024:17 14.0660828MORLANWELZ
10.2037LUPCIN Patrick51BELRC NAMUR1:30:151:30:284:18 13.9962822NATOYE
11.2027WILLEMS Christian56BEL1:30:431:30:434:18 13.9665814AMAY
12.1088BAUWIN Dominique52BELRONVAU1:30:501:30:534:19 13.9370809DION-VALMONT
13.1818HUBERT Roger50BELSPTWAVRE1:32:121:32:174:23 13.7279786MARIAKERKE
14.604DESSAMBRE Marcel59BELOCANJOGGPLUS1:32:241:32:274:23 13.6981782NAMECHE
15.2031LARBANOIS Claude53NLDSERUNNER1:32:381:32:424:24 13.6685777LIEGE
16.142GHEM Michel53BELTORTUES1:32:411:32:434:24 13.6586775BIERGHES
17.1980VIDICK Jean-Luc55BELCACE1:32:521:32:544:25 13.6387772BRUXELLES
18.497WYNS Jos56BELHULSHEISTSE BE1:33:551:33:584:28 13.47101749HALLAAR
19.146VAN NEVEL Frans54BELBEHO1:33:391:34:144:28 13.43104751BRUGGE
20.156DUMONT J.Luc51BELACLOST BERNARD1:35:121:35:174:31 13.29114725LA LOUVIERE
21.2246ARCHAMBEAU Roger58BELSERUNNER1:35:271:35:314:32 13.25115721SAINT-NICOLAS
22.521RAEYMAEKERS Ludovic54BELBVAC1:35:471:35:524:33 13.21117716EKEREN
23.2016ILARIO Rosario57BELSERUNNER1:37:561:38:074:40 12.90132680MONTEGNEE
24.1392DE MASI Gianni55BELFLEU1:38:371:38:414:41 12.83136669WANFERCEE BAULET
25.567DECLERCQ Georges50BELENJWOL1:38:461:38:524:42 12.81140665ETTERBEECK
26.1304LOTENS Yvan53BELTORTUES1:40:111:40:174:46 12.62150641MESLIN L'EVEQUE
27.2216GILET Maurice56BEL1:40:191:40:254:46 12.61153638STEMBERT
28.566WAERTS Alain55BELS.A.SERUNNER1:40:211:40:284:46 12.60154637DURBUY
29.426QUINET Bernard56BELFLEU1:41:031:41:104:48 12.51158626GILLY
30.2237PONCIN Pierre53BELHRC1:41:231:41:264:49 12.48162619
31.1933DE SOBRIE Herman56BELACHLKASTEEL1:41:231:41:354:49 12.46164618VORSELAAR
32.106DUPONT Roger51BELCAF1:41:461:41:524:50 12.43168611LA ROCHE-EN -ARDENNES
33.2267RIHON Paul52BEL1:41:561:42:044:51 12.40170607WAREMME
34.1207LEFORT Jean Marie57BELSABCA1:41:541:42:194:51 12.37174605GLABAIS
35.255FOURNY Philippe53BELSERSERUNNER1:42:501:42:554:53 12.30180590CHAUDFONTAINE
36.2004CUYPERS Jean-Pierre52BELSERRUN1:43:231:43:434:55 12.21195574TONGEREN
37.2300LOCICERO Salvatore53BELVAC1:43:291:43:444:55 12.20196572CHATELINEAU
38.346LELOUP Yves54BELFLEU1:44:011:44:164:57 12.14202562ST-AMAND
39.33GEORGES Francois52BEL1:45:211:45:355:01 11.99217537IXELLES
40.1952DELNEUFCOURT Jean-Paul59BEL1:45:141:45:365:01 11.99218538SOIGNIES
41.160RUYMEN Michel52BELACA1:45:441:45:535:02 11.96221530SINT TRUIDEN
42.579BELGEONNE Christian55BELJOGGPLUS1:45:381:45:585:02 11.95223530WEPION
43.2039FRESCA Luigi55BELUACDILAVILE1:45:451:45:595:02 11.95224528CHATELET
44.2029AERTS Joseph58BEL1:45:441:46:115:02 11.92230524WAREMME
45.755VAN HEULENBERGHE Frank52BEL1:45:571:46:165:03 11.91231521GENT
46.2277KLASSEN Wally52BELAC HERVE1:45:441:46:195:03 11.91232523BATTICE
47.2040FALZONE Gaetan58BELOWENS CORNSERUNNER1:46:241:46:405:04 11.87238511NEUPRÉ
48.2275LEJEUNE Jean-Claude54BELHERU1:46:211:46:565:05 11.84241510SOUMAGNE
49.2291GERSTMANS Christian55BELFCHA1:47:281:47:535:07 11.73248493HANNUT
50.2024GONDA Gilbert57BELSERUNNER1:47:261:48:025:08 11.72250491IVOZ-RAMET
51.230CUVELIER Luc50BELTORTUES1:48:201:48:265:09 11.68252481BASSILLY
52.2005THIRY Alain50BELWWW.JOGGING.ORG1:48:111:48:315:09 11.67254481AWIRS
53.465BOSKIN Jean-Claude53BELFOULEE1:48:141:48:335:09 11.66255480STAVELOT
54.1714DELFOSSE Jacques52BELRCNAMUR1:48:321:48:545:10 11.63259474LES BOSCAILLES
55.743RATINCKX Michel51BELRIWAHERMATH1:48:451:48:545:10 11.63260471BIERGES
56.2003TOUSSAINT Alain55BELMPW1:48:291:48:575:10 11.62261473STEMBERT
57.745POMES Jean-Paul58BELHRC1:48:511:49:055:11 11.61263468NOBRESSART
58.1445MARIEN Jean-Luc50BELJOGGANS1:48:451:49:155:11 11.59265467BRUXELLES
59.2238RENARD Georges58BELHRC1:49:051:49:205:11 11.58267462
60.375HERMANS Luc58BELANPCV1:48:551:49:265:12 11.57272460LIBIN
61.1149ROBERT Guy50BELFLEUFLEURUS AT1:49:291:49:495:13 11.53275453GODARVILLE
62.1878ROMAIN Bernard51BELJAMES1:50:091:50:335:15 11.45277444CHASTRE
63.370ESSAWTI Mohamed58BELUACRRTC1:50:101:50:415:15 11.44279443FARCIENNES
64.2292ABRAHAM Luc51BELUSBW1:50:341:50:445:15 11.43281437WATERLOO
65.671DASNOIS Michel53BELBBS1:50:411:50:555:16 11.41285433PALISEUL
66.2293GODELAINE Freddy55BELFAC1:50:371:50:575:16 11.41286433AYWAILLE
67.777KINET Serge50BELJOGGPLUS1:50:321:50:585:16 11.41287433FLEMALLE-HAUTE
68.209GODEFRIDI Thierry57BEL1:51:201:51:225:17 11.37291422RIXENSART
69.1712POSKIN Bernard57BELMSF1:51:071:51:305:18 11.35292424PERONNES LEZ BIN
70.1153MASSART Victor55BELACLOULTRAMAR1:51:371:52:015:19 11.30298414COUILLET
71.2285KRETTELS Guy54BEL1:53:111:53:235:23 11.17313388LIEGE
72.1347DE CALUWE Jean-Pierre52BELSODIBRUG1:53:271:53:485:24 11.12322379BRUGGE
73.1004BIENFAIT Philippe52BELETETORTUES1:53:411:53:515:24 11.12325375ENGHIEN
74.1512BUSCICCHIO Eugene54BELMPW1:53:471:54:035:25 11.10329371VERVIERS
75.1555FIVET Alain55BEL1:53:361:54:075:25 11.09331371JAMBES
76.646HUART Louis51BEL1:54:101:54:235:26 11.07336362HULDENBERG
77.242VAN ESPEN Michel53BELACLO1:54:421:54:525:27 11.02340354HAINE SAINT PIERRE
78.2241CHEVALIER Jean-Paul50BELETC1:54:431:55:015:28 11.01341353ATH
79.165COMANDINI Luciano52BELUACRRTC1:54:371:55:105:28 10.99342353MONTIGNIES-SUR-SAMBRE
80.2286JADOT Pierre53BELLESD'ZYS1:54:591:55:355:29 10.95349345SENY
81.790FOLIE Yvon51BEL1:55:301:55:465:30 10.94351338AWENNE (SAINT-HUBERT)
82.2289ARNOULD Jean-Luc55BELRCNAMUR1:55:571:56:225:31 10.88357330FLAWINNE
83.2294JASSOGNE Claudy54BELRCNRCNAMUR1:55:591:56:235:31 10.88358329BONINNE
84.643MASSART Patrick50BELHRC1:56:171:56:305:32 10.87360324ARLON
85.1633JARDON Paul53BELSCBUTG1:56:501:57:045:33 10.81364316STAVELOT
86.2304HERCOT Robert53BELFAC1:56:541:57:275:34 10.78369312SCLESSIN LIEGE
87.225OLIVIER Pierre50BELSERSERUNNER1:57:151:57:535:36 10.74374305HANEFFE
88.869GENOT Yves52BELENJAMBEE1:57:471:58:035:36 10.72377298BRUXELLES
89.2014FALZONE Croce54BELSERUNNER1:57:391:58:075:36 10.72379297JEMEPPE
90.306RODRIGUEZ Pedro50BELMPW1:58:581:59:135:40 10.62386280VERVIERS
91.308TOMBEUX Christian57BELMPW1:58:581:59:135:40 10.62387279VERVIERS
92.414PEGORARO Roberto52BELUACDILAVILE1:59:401:59:545:41 10.56391270CHATELET
93.2012MAKA Marcel53BELSERAING RUNNERS1:59:391:59:595:42 10.55392269TINLOT
94.51VAN POPERING Emile55BELKAPUCIJN2:00:102:00:425:44 10.49394263HALLE
95.155AKKERMANS Francois58BELBRASS2:00:512:00:595:45 10.46397254BRASSCHAAT
96.1926LEJEUNE Christian59BEL16502:00:212:01:015:45 10.46398258VERVIERS
97.2341SACRE Claude52BELSERUNNER2:01:352:02:095:48 10.36403243ANGLEUR
98.2218MASY Henri54BELRT BRAIVES2:04:262:05:055:56 10.12417207DARION
99.2240LAPAGLIA Bruno50BEL2:05:112:05:265:57 10.09418199GENLY
100.2347DEMOLLIN Marc53BEL2:10:232:10:326:12 9.70432143HEUSY
101.1031DEWIGNE Bernard51BELGLOBTROT2:10:072:10:426:12 9.69433145CHASTRE
102.2034BOUGARD Fernand56BELSERSERUNNER2:11:122:11:406:15 9.62436133BONCELLES
103.527ARNOULD Edouard54BELENJWOL2:12:202:12:506:18 9.53447116BRUXELLES
104.495DISWISCOURT Jose54BELHRC2:12:182:12:526:18 9.53448115HARINSART
105.915JOOSEN Johannes53BEL2:13:182:13:336:20 9.48449106WORTEL
106.2203PIRAUX Jean-Marie53BEL2:17:482:18:186:34 9.1545464VILLERS-LE-TEMPLE
107.694DEJARDIN Gilbert52BELSPA2:21:582:22:266:46 8.8946125THEUX
108.2233BODET Michel51BELHRC2:22:312:22:586:47 8.8646320
109.249PIRSON Patrice51BELJCCS2:26:082:26:456:58 8.634667SART-CUSTINNE
DNF2344DIPASQUALE Jacky52BELMONTEGNÉE
DNF: did not finish; DSQ: disqualified; Speed in km/h
Page: [1]